Year,Month,Day,Hour,Minute,Value (Times are PST for temperature in C)
2018,04,23,00,00,7.70
2018,04,23,00,01,7.70
2018,04,23,00,02,7.70
2018,04,23,00,03,7.70
2018,04,23,00,04,7.70
2018,04,23,00,05,7.70
2018,04,23,00,06,7.70
2018,04,23,00,07,7.70
2018,04,23,00,08,7.70
2018,04,23,00,09,7.70
2018,04,23,00,10,7.80
2018,04,23,00,11,7.80
2018,04,23,00,12,7.80
2018,04,23,00,13,7.80
2018,04,23,00,14,7.80
2018,04,23,00,15,7.80
2018,04,23,00,16,7.80
2018,04,23,00,17,7.80
2018,04,23,00,18,7.80
2018,04,23,00,19,7.90
2018,04,23,00,20,7.90
2018,04,23,00,21,7.90
2018,04,23,00,22,7.90
2018,04,23,00,23,7.90
2018,04,23,00,24,7.90
2018,04,23,00,25,7.90
2018,04,23,00,26,7.90
2018,04,23,00,27,7.90
2018,04,23,00,28,7.90
2018,04,23,00,29,7.90
2018,04,23,00,30,7.90
2018,04,23,00,31,7.90
2018,04,23,00,32,7.90
2018,04,23,00,33,7.80
2018,04,23,00,34,7.80
2018,04,23,00,35,7.80
2018,04,23,00,36,7.80
2018,04,23,00,37,7.70
2018,04,23,00,38,7.70
2018,04,23,00,39,7.60
2018,04,23,00,40,7.60
2018,04,23,00,41,7.60
2018,04,23,00,42,7.60
2018,04,23,00,43,7.60
2018,04,23,00,44,7.60
2018,04,23,00,45,7.50
2018,04,23,00,46,7.60
2018,04,23,00,47,7.60
2018,04,23,00,48,7.70
2018,04,23,00,49,7.80
2018,04,23,00,50,7.80
2018,04,23,00,51,7.90
2018,04,23,00,52,7.90
2018,04,23,00,53,8.00
2018,04,23,00,54,8.00
2018,04,23,00,55,8.10
2018,04,23,00,56,8.20
2018,04,23,00,57,8.30
2018,04,23,00,58,8.30
2018,04,23,00,59,8.30
2018,04,23,01,00,8.30
2018,04,23,01,01,8.30
2018,04,23,01,02,8.30
2018,04,23,01,03,8.30
2018,04,23,01,04,8.20
2018,04,23,01,05,8.20
2018,04,23,01,06,8.10
2018,04,23,01,07,8.10
2018,04,23,01,08,8.00
2018,04,23,01,09,7.90
2018,04,23,01,10,7.80
2018,04,23,01,11,7.80
2018,04,23,01,12,7.70
2018,04,23,01,13,7.60
2018,04,23,01,14,7.60
2018,04,23,01,15,7.50
2018,04,23,01,16,7.40
2018,04,23,01,17,7.40
2018,04,23,01,18,7.40
2018,04,23,01,19,7.30
2018,04,23,01,20,7.40
2018,04,23,01,21,7.40
2018,04,23,01,22,7.40
2018,04,23,01,23,7.40
2018,04,23,01,24,7.50
2018,04,23,01,25,7.50
2018,04,23,01,26,7.50
2018,04,23,01,27,7.50
2018,04,23,01,28,7.50
2018,04,23,01,29,7.50
2018,04,23,01,30,7.40
2018,04,23,01,31,7.40
2018,04,23,01,32,7.40
2018,04,23,01,33,7.30
2018,04,23,01,34,7.30
2018,04,23,01,35,7.30
2018,04,23,01,36,7.30
2018,04,23,01,37,7.20
2018,04,23,01,38,7.20
2018,04,23,01,39,7.10
2018,04,23,01,40,7.00
2018,04,23,01,41,7.00
2018,04,23,01,42,6.90
2018,04,23,01,43,6.90
2018,04,23,01,44,6.80
2018,04,23,01,45,6.80
2018,04,23,01,46,6.70
2018,04,23,01,47,6.70
2018,04,23,01,48,6.60
2018,04,23,01,49,6.60
2018,04,23,01,50,6.60
2018,04,23,01,51,6.40
2018,04,23,01,52,6.40
2018,04,23,01,53,6.40
2018,04,23,01,54,6.40
2018,04,23,01,55,6.40
2018,04,23,01,56,6.40
2018,04,23,01,57,6.40
2018,04,23,01,58,6.40
2018,04,23,01,59,6.40
2018,04,23,02,00,6.40
2018,04,23,02,01,6.40
2018,04,23,02,02,6.50
2018,04,23,02,03,6.60
2018,04,23,02,04,6.60
2018,04,23,02,05,6.70
2018,04,23,02,06,6.80
2018,04,23,02,07,6.90
2018,04,23,02,08,7.00
2018,04,23,02,09,7.00
2018,04,23,02,10,7.10
2018,04,23,02,11,7.10
2018,04,23,02,12,7.20
2018,04,23,02,13,7.20
2018,04,23,02,14,7.20
2018,04,23,02,15,7.20
2018,04,23,02,16,7.10
2018,04,23,02,17,7.10
2018,04,23,02,18,7.00
2018,04,23,02,19,7.00
2018,04,23,02,20,6.90
2018,04,23,02,21,6.80
2018,04,23,02,22,6.80
2018,04,23,02,23,6.80
2018,04,23,02,24,6.70
2018,04,23,02,25,6.70
2018,04,23,02,26,6.60
2018,04,23,02,27,6.60
2018,04,23,02,28,6.50
2018,04,23,02,29,6.40
2018,04,23,02,30,6.40
2018,04,23,02,31,6.40
2018,04,23,02,32,6.30
2018,04,23,02,33,6.30
2018,04,23,02,34,6.20
2018,04,23,02,35,6.20
2018,04,23,02,36,6.20
2018,04,23,02,37,6.20
2018,04,23,02,38,6.20
2018,04,23,02,39,6.20
2018,04,23,02,40,6.20
2018,04,23,02,41,6.20
2018,04,23,02,42,6.20
2018,04,23,02,43,6.30
2018,04,23,02,44,6.50
2018,04,23,02,45,6.60
2018,04,23,02,46,6.60
2018,04,23,02,47,6.70
2018,04,23,02,48,6.80
2018,04,23,02,49,6.80
2018,04,23,02,50,6.80
2018,04,23,02,51,6.90
2018,04,23,02,52,6.90
2018,04,23,02,53,6.90
2018,04,23,02,54,6.90
2018,04,23,02,55,6.90
2018,04,23,02,56,6.90
2018,04,23,02,57,6.90
2018,04,23,02,58,6.80
2018,04,23,02,59,6.80
2018,04,23,03,00,6.80
2018,04,23,03,01,6.90
2018,04,23,03,02,6.90
2018,04,23,03,03,6.90
2018,04,23,03,04,6.90
2018,04,23,03,05,6.90
2018,04,23,03,06,6.90
2018,04,23,03,07,6.90
2018,04,23,03,08,6.90
2018,04,23,03,09,6.90
2018,04,23,03,10,6.80
2018,04,23,03,11,6.80
2018,04,23,03,12,6.80
2018,04,23,03,13,6.80
2018,04,23,03,14,6.80
2018,04,23,03,15,6.80
2018,04,23,03,16,6.80
2018,04,23,03,17,6.70
2018,04,23,03,18,6.70
2018,04,23,03,19,6.60
2018,04,23,03,20,6.60
2018,04,23,03,21,6.60
2018,04,23,03,22,6.60
2018,04,23,03,23,6.50
2018,04,23,03,24,6.40
2018,04,23,03,25,6.40
2018,04,23,03,26,6.40
2018,04,23,03,27,6.40
2018,04,23,03,28,6.30
2018,04,23,03,29,6.30
2018,04,23,03,30,6.30
2018,04,23,03,31,6.20
2018,04,23,03,32,6.20
2018,04,23,03,33,6.20
2018,04,23,03,34,6.20
2018,04,23,03,35,6.20
2018,04,23,03,36,6.20
2018,04,23,03,37,6.20
2018,04,23,03,38,6.20
2018,04,23,03,39,6.20
2018,04,23,03,40,6.20
2018,04,23,03,41,6.20
2018,04,23,03,42,6.30
2018,04,23,03,43,6.30
2018,04,23,03,44,6.30
2018,04,23,03,45,6.30
2018,04,23,03,46,6.30
2018,04,23,03,47,6.30
2018,04,23,03,48,6.30
2018,04,23,03,49,6.30
2018,04,23,03,50,6.30
2018,04,23,03,51,6.30
2018,04,23,03,52,6.40
2018,04,23,03,53,6.40
2018,04,23,03,54,6.40
2018,04,23,03,55,6.40
2018,04,23,03,56,6.40
2018,04,23,03,57,6.40
2018,04,23,03,58,6.40
2018,04,23,03,59,6.50
2018,04,23,04,00,6.60
2018,04,23,04,01,6.60
2018,04,23,04,02,6.60
2018,04,23,04,03,6.60
2018,04,23,04,04,6.60
2018,04,23,04,05,6.60
2018,04,23,04,06,6.60
2018,04,23,04,07,6.60
2018,04,23,04,08,6.70
2018,04,23,04,09,6.70
2018,04,23,04,10,6.70
2018,04,23,04,11,6.70
2018,04,23,04,12,6.70
2018,04,23,04,13,6.70
2018,04,23,04,14,6.70
2018,04,23,04,15,6.70
2018,04,23,04,16,6.80
2018,04,23,04,17,6.80
2018,04,23,04,18,6.80
2018,04,23,04,19,6.80
2018,04,23,04,20,6.80
2018,04,23,04,21,6.80
2018,04,23,04,22,6.80
2018,04,23,04,23,6.80
2018,04,23,04,24,6.80
2018,04,23,04,25,6.80
2018,04,23,04,26,6.80
2018,04,23,04,27,6.80
2018,04,23,04,28,6.70
2018,04,23,04,29,6.70
2018,04,23,04,30,6.70
2018,04,23,04,31,6.70
2018,04,23,04,32,6.60
2018,04,23,04,33,6.60
2018,04,23,04,34,6.60
2018,04,23,04,35,6.60
2018,04,23,04,36,6.60
2018,04,23,04,37,6.60
2018,04,23,04,38,6.60
2018,04,23,04,39,6.50
2018,04,23,04,40,6.40
2018,04,23,04,41,6.40
2018,04,23,04,42,6.40
2018,04,23,04,43,6.40
2018,04,23,04,44,6.40
2018,04,23,04,45,6.40
2018,04,23,04,46,6.40
2018,04,23,04,47,6.30
2018,04,23,04,48,6.30
2018,04,23,04,49,6.30
2018,04,23,04,50,6.30
2018,04,23,04,51,6.20
2018,04,23,04,52,6.20
2018,04,23,04,53,6.20
2018,04,23,04,54,6.20
2018,04,23,04,55,6.20
2018,04,23,04,56,6.20
2018,04,23,04,57,6.20
2018,04,23,04,58,6.20
2018,04,23,04,59,6.10
2018,04,23,05,00,6.10
2018,04,23,05,01,6.10
2018,04,23,05,02,6.10
2018,04,23,05,03,6.00
2018,04,23,05,04,6.00
2018,04,23,05,05,6.00
2018,04,23,05,06,5.90
2018,04,23,05,07,5.90
2018,04,23,05,08,5.90
2018,04,23,05,09,5.90
2018,04,23,05,10,5.90
2018,04,23,05,11,5.90
2018,04,23,05,12,6.00
2018,04,23,05,13,6.00
2018,04,23,05,14,6.00
2018,04,23,05,15,6.00
2018,04,23,05,16,6.10
2018,04,23,05,17,6.10
2018,04,23,05,18,6.20
2018,04,23,05,19,6.20
2018,04,23,05,20,6.20
2018,04,23,05,21,6.30
2018,04,23,05,22,6.30
2018,04,23,05,23,6.40
2018,04,23,05,24,6.40
2018,04,23,05,25,6.40
2018,04,23,05,26,6.40
2018,04,23,05,27,6.50
2018,04,23,05,28,6.60
2018,04,23,05,29,6.60
2018,04,23,05,30,6.60
2018,04,23,05,31,6.70
2018,04,23,05,32,6.70
2018,04,23,05,33,6.70
2018,04,23,05,34,6.80
2018,04,23,05,35,6.80
2018,04,23,05,36,6.80
2018,04,23,05,37,6.80
2018,04,23,05,38,6.80
2018,04,23,05,39,6.80
2018,04,23,05,40,6.80
2018,04,23,05,41,6.80
2018,04,23,05,42,6.80
2018,04,23,05,43,6.80
2018,04,23,05,44,6.80
2018,04,23,05,45,6.80
2018,04,23,05,46,6.80
2018,04,23,05,47,6.90
2018,04,23,05,48,6.90
2018,04,23,05,49,6.90
2018,04,23,05,50,6.90
2018,04,23,05,51,6.90
2018,04,23,05,52,7.00
2018,04,23,05,53,7.00
2018,04,23,05,54,7.00
2018,04,23,05,55,7.00
2018,04,23,05,56,7.00
2018,04,23,05,57,7.00
2018,04,23,05,58,7.10
2018,04,23,05,59,7.10
2018,04,23,06,00,7.10
2018,04,23,06,01,7.10
2018,04,23,06,02,7.10
2018,04,23,06,03,7.10
2018,04,23,06,04,7.10
2018,04,23,06,05,7.10
2018,04,23,06,06,7.10
2018,04,23,06,07,7.10
2018,04,23,06,08,7.10
2018,04,23,06,09,7.10
2018,04,23,06,10,7.10
2018,04,23,06,11,7.10
2018,04,23,06,12,7.10
2018,04,23,06,13,7.10
2018,04,23,06,14,7.10
2018,04,23,06,15,7.10
2018,04,23,06,16,7.10
2018,04,23,06,17,7.00
2018,04,23,06,18,7.00
2018,04,23,06,19,7.00
2018,04,23,06,20,7.10
2018,04,23,06,21,7.10
2018,04,23,06,22,7.10
2018,04,23,06,23,7.10
2018,04,23,06,24,7.10
2018,04,23,06,25,7.10
2018,04,23,06,26,7.10
2018,04,23,06,27,7.10
2018,04,23,06,28,7.00
2018,04,23,06,29,7.00
2018,04,23,06,30,7.10
2018,04,23,06,31,7.10
2018,04,23,06,32,7.10
2018,04,23,06,33,7.10
2018,04,23,06,34,7.10
2018,04,23,06,35,7.10
2018,04,23,06,36,7.20
2018,04,23,06,37,7.20
2018,04,23,06,38,7.30
2018,04,23,06,39,7.30
2018,04,23,06,40,7.30
2018,04,23,06,41,7.30
2018,04,23,06,42,7.30
2018,04,23,06,43,7.30
2018,04,23,06,44,7.40
2018,04,23,06,45,7.40
2018,04,23,06,46,7.50
2018,04,23,06,47,7.50
2018,04,23,06,48,7.60
2018,04,23,06,49,7.60
2018,04,23,06,50,7.60
2018,04,23,06,51,7.70
2018,04,23,06,52,7.70
2018,04,23,06,53,7.80
2018,04,23,06,54,7.80
2018,04,23,06,55,7.80
2018,04,23,06,56,7.80
2018,04,23,06,57,7.80
2018,04,23,06,58,7.80
2018,04,23,06,59,7.80
2018,04,23,07,00,7.80
2018,04,23,07,01,7.80
2018,04,23,07,02,7.90
2018,04,23,07,03,7.90
2018,04,23,07,04,7.90
2018,04,23,07,05,7.90
2018,04,23,07,06,7.90
2018,04,23,07,07,8.00
2018,04,23,07,08,8.00
2018,04,23,07,09,8.00
2018,04,23,07,10,8.00
2018,04,23,07,11,8.10
2018,04,23,07,12,8.10
2018,04,23,07,13,8.10
2018,04,23,07,14,8.10
2018,04,23,07,15,8.10
2018,04,23,07,16,8.20
2018,04,23,07,17,8.20
2018,04,23,07,18,8.20
2018,04,23,07,19,8.20
2018,04,23,07,20,8.20
2018,04,23,07,21,8.20
2018,04,23,07,22,8.20
2018,04,23,07,23,8.20
2018,04,23,07,24,8.30
2018,04,23,07,25,8.30
2018,04,23,07,26,8.30
2018,04,23,07,27,8.30
2018,04,23,07,28,8.30
2018,04,23,07,29,8.30
2018,04,23,07,30,8.30
2018,04,23,07,31,8.40
2018,04,23,07,32,8.40
2018,04,23,07,33,8.30
2018,04,23,07,34,8.30
2018,04,23,07,35,8.30
2018,04,23,07,36,8.30
2018,04,23,07,37,8.30
2018,04,23,07,38,8.30
2018,04,23,07,39,8.30
2018,04,23,07,40,8.40
2018,04,23,07,41,8.40
2018,04,23,07,42,8.40
2018,04,23,07,43,8.40
2018,04,23,07,44,8.40
2018,04,23,07,45,8.40
2018,04,23,07,46,8.40
2018,04,23,07,47,8.40
2018,04,23,07,48,8.50
2018,04,23,07,49,8.50
2018,04,23,07,50,8.50
2018,04,23,07,51,8.50
2018,04,23,07,52,8.50
2018,04,23,07,53,8.50
2018,04,23,07,54,8.50
2018,04,23,07,55,8.50
2018,04,23,07,56,8.50
2018,04,23,07,57,8.50
2018,04,23,07,58,8.60
2018,04,23,07,59,8.60
2018,04,23,08,00,8.60
2018,04,23,08,01,8.70
2018,04,23,08,02,8.70
2018,04,23,08,03,8.70
2018,04,23,08,04,8.70
2018,04,23,08,05,8.70
2018,04,23,08,06,8.70
2018,04,23,08,07,8.70
2018,04,23,08,08,8.70
2018,04,23,08,09,8.70
2018,04,23,08,10,8.70
2018,04,23,08,11,8.70
2018,04,23,08,12,8.70
2018,04,23,08,13,8.70
2018,04,23,08,14,8.70
2018,04,23,08,15,8.70
2018,04,23,08,16,8.80
2018,04,23,08,17,8.80
2018,04,23,08,18,8.80
2018,04,23,08,19,8.90
2018,04,23,08,20,8.90
2018,04,23,08,21,8.90
2018,04,23,08,22,8.90
2018,04,23,08,23,8.90
2018,04,23,08,24,9.00
2018,04,23,08,25,9.00
2018,04,23,08,26,9.00
2018,04,23,08,27,9.00
2018,04,23,08,28,9.10
2018,04,23,08,29,9.10
2018,04,23,08,30,9.20
2018,04,23,08,31,9.20
2018,04,23,08,32,9.20
2018,04,23,08,33,9.30
2018,04,23,08,34,9.30
2018,04,23,08,35,9.30
2018,04,23,08,36,9.30
2018,04,23,08,37,9.30
2018,04,23,08,38,9.30
2018,04,23,08,39,9.30
2018,04,23,08,40,9.30
2018,04,23,08,41,9.30
2018,04,23,08,42,9.30
2018,04,23,08,43,9.40
2018,04,23,08,44,9.40
2018,04,23,08,45,9.40
2018,04,23,08,46,9.40
2018,04,23,08,47,9.40
2018,04,23,08,48,9.40
2018,04,23,08,49,9.40
2018,04,23,08,50,9.40
2018,04,23,08,51,9.40
2018,04,23,08,52,9.40
2018,04,23,08,53,9.40
2018,04,23,08,54,9.40
2018,04,23,08,55,9.50
2018,04,23,08,56,9.60
2018,04,23,08,57,9.60
2018,04,23,08,58,9.70
2018,04,23,08,59,9.70
2018,04,23,09,00,9.70
2018,04,23,09,01,9.60
2018,04,23,09,02,9.60
2018,04,23,09,03,9.50
2018,04,23,09,04,9.50
2018,04,23,09,05,9.50
2018,04,23,09,06,9.50
2018,04,23,09,07,9.40
2018,04,23,09,08,9.40
2018,04,23,09,09,9.40
2018,04,23,09,10,9.40
2018,04,23,09,11,9.50
2018,04,23,09,12,9.50
2018,04,23,09,13,9.50
2018,04,23,09,14,9.50
2018,04,23,09,15,9.50
2018,04,23,09,16,9.50
2018,04,23,09,17,9.40
2018,04,23,09,18,9.40
2018,04,23,09,19,9.40
2018,04,23,09,20,9.50
2018,04,23,09,21,9.50
2018,04,23,09,22,9.60
2018,04,23,09,23,9.70
2018,04,23,09,24,9.70
2018,04,23,09,25,9.70
2018,04,23,09,26,9.70
2018,04,23,09,27,9.70
2018,04,23,09,28,9.70
2018,04,23,09,29,9.70
2018,04,23,09,30,9.70
2018,04,23,09,31,9.80
2018,04,23,09,32,9.80
2018,04,23,09,33,9.80
2018,04,23,09,34,9.80
2018,04,23,09,35,9.90
2018,04,23,09,36,9.90
2018,04,23,09,37,10.00
2018,04,23,09,38,10.10
2018,04,23,09,39,10.10
2018,04,23,09,40,10.10
2018,04,23,09,41,10.10
2018,04,23,09,42,10.10
2018,04,23,09,43,10.10
2018,04,23,09,44,10.10
2018,04,23,09,45,10.10
2018,04,23,09,46,10.10
2018,04,23,09,47,10.10
2018,04,23,09,48,10.10
2018,04,23,09,49,10.10
2018,04,23,09,50,10.10
2018,04,23,09,51,10.10
2018,04,23,09,52,10.10
2018,04,23,09,53,10.10
2018,04,23,09,54,10.10
2018,04,23,09,55,10.10
2018,04,23,09,56,10.20
2018,04,23,09,57,10.20
2018,04,23,09,58,10.20
2018,04,23,09,59,10.30
2018,04,23,10,00,10.40
2018,04,23,10,01,10.40
2018,04,23,10,02,10.30
2018,04,23,10,03,10.30
2018,04,23,10,04,10.30
2018,04,23,10,05,10.40
2018,04,23,10,06,10.40
2018,04,23,10,07,10.40
2018,04,23,10,08,10.40
2018,04,23,10,09,10.50
2018,04,23,10,10,10.60
2018,04,23,10,11,10.60
2018,04,23,10,12,10.60
2018,04,23,10,13,10.60
2018,04,23,10,14,10.60
2018,04,23,10,15,10.60
2018,04,23,10,16,10.50
2018,04,23,10,17,10.40
2018,04,23,10,18,10.40
2018,04,23,10,19,10.40
2018,04,23,10,20,10.40
2018,04,23,10,21,10.40
2018,04,23,10,22,10.40
2018,04,23,10,23,10.40
2018,04,23,10,24,10.50
2018,04,23,10,25,10.60
2018,04,23,10,26,10.60
2018,04,23,10,27,10.70
2018,04,23,10,28,10.70
2018,04,23,10,29,10.80
2018,04,23,10,30,10.90
2018,04,23,10,31,10.90
2018,04,23,10,32,10.90
2018,04,23,10,33,10.90
2018,04,23,10,34,10.90
2018,04,23,10,35,10.90
2018,04,23,10,36,10.90
2018,04,23,10,37,10.90
2018,04,23,10,38,10.90
2018,04,23,10,39,10.90
2018,04,23,10,40,10.90
2018,04,23,10,41,11.00
2018,04,23,10,42,11.10
2018,04,23,10,43,11.10
2018,04,23,10,44,11.10
2018,04,23,10,45,11.10
2018,04,23,10,46,11.10
2018,04,23,10,47,11.20
2018,04,23,10,48,11.20
2018,04,23,10,49,11.30
2018,04,23,10,50,11.30
2018,04,23,10,51,11.30
2018,04,23,10,52,11.30
2018,04,23,10,53,11.30
2018,04,23,10,54,11.30
2018,04,23,10,55,11.30
2018,04,23,10,56,11.20
2018,04,23,10,57,11.20
2018,04,23,10,58,11.20
2018,04,23,10,59,11.20
2018,04,23,11,00,11.20
2018,04,23,11,01,11.20
2018,04,23,11,02,11.30
2018,04,23,11,03,11.30
2018,04,23,11,04,11.40
2018,04,23,11,05,11.40
2018,04,23,11,06,11.30
2018,04,23,11,07,11.40
2018,04,23,11,08,11.50
2018,04,23,11,09,11.60
2018,04,23,11,10,11.80
2018,04,23,11,11,11.80
2018,04,23,11,12,11.80
2018,04,23,11,13,11.70
2018,04,23,11,14,11.60
2018,04,23,11,15,11.60
2018,04,23,11,16,11.60
2018,04,23,11,17,11.60
2018,04,23,11,18,11.60
2018,04,23,11,19,11.70
2018,04,23,11,20,11.70
2018,04,23,11,21,11.80
2018,04,23,11,22,11.80
2018,04,23,11,23,11.80
2018,04,23,11,24,11.80
2018,04,23,11,25,11.80
2018,04,23,11,26,11.80
2018,04,23,11,27,11.80
2018,04,23,11,28,11.80
2018,04,23,11,29,11.80
2018,04,23,11,30,11.70
2018,04,23,11,31,11.70
2018,04,23,11,32,11.60
2018,04,23,11,33,11.70
2018,04,23,11,34,11.80
2018,04,23,11,35,11.80
2018,04,23,11,36,11.80
2018,04,23,11,37,11.80
2018,04,23,11,38,11.70
2018,04,23,11,39,11.70
2018,04,23,11,40,11.70
2018,04,23,11,41,11.70
2018,04,23,11,42,11.70
2018,04,23,11,43,11.70
2018,04,23,11,44,11.80
2018,04,23,11,45,11.80
2018,04,23,11,46,11.80
2018,04,23,11,47,11.80
2018,04,23,11,48,11.80
2018,04,23,11,49,11.80
2018,04,23,11,50,11.80
2018,04,23,11,51,11.80
2018,04,23,11,52,11.80
2018,04,23,11,53,11.90
2018,04,23,11,54,12.00
2018,04,23,11,55,12.10
2018,04,23,11,56,12.20
2018,04,23,11,57,12.30
2018,04,23,11,58,12.30
2018,04,23,11,59,12.30
2018,04,23,12,00,12.30
2018,04,23,12,01,12.30
2018,04,23,12,02,12.30
2018,04,23,12,03,12.40
2018,04,23,12,04,12.50
2018,04,23,12,05,12.50
2018,04,23,12,06,12.50
2018,04,23,12,07,12.60
2018,04,23,12,08,12.70
2018,04,23,12,09,12.80
2018,04,23,12,10,12.80
2018,04,23,12,11,12.80
2018,04,23,12,12,12.80
2018,04,23,12,13,12.80
2018,04,23,12,14,12.70
2018,04,23,12,15,12.60
2018,04,23,12,16,12.60
2018,04,23,12,17,12.60
2018,04,23,12,18,12.60
2018,04,23,12,19,12.50
2018,04,23,12,20,12.50
2018,04,23,12,21,12.50
2018,04,23,12,22,12.50
2018,04,23,12,23,12.40
2018,04,23,12,24,12.50
2018,04,23,12,25,12.50
2018,04,23,12,26,12.50
2018,04,23,12,27,12.50
2018,04,23,12,28,12.50
2018,04,23,12,29,12.60
2018,04,23,12,30,12.50
2018,04,23,12,31,12.50
2018,04,23,12,32,12.40
2018,04,23,12,33,12.40
2018,04,23,12,34,12.40
2018,04,23,12,35,12.40
2018,04,23,12,36,12.50
2018,04,23,12,37,12.50
2018,04,23,12,38,12.50
2018,04,23,12,39,12.60
2018,04,23,12,40,12.60
2018,04,23,12,41,12.60
2018,04,23,12,42,12.60
2018,04,23,12,43,12.70
2018,04,23,12,44,12.80
2018,04,23,12,45,12.80
2018,04,23,12,46,12.80
2018,04,23,12,47,12.70
2018,04,23,12,48,12.80
2018,04,23,12,49,12.90
2018,04,23,12,50,12.90
2018,04,23,12,51,12.90
2018,04,23,12,52,13.00
2018,04,23,12,53,13.00
2018,04,23,12,54,13.00
2018,04,23,12,55,13.00
2018,04,23,12,56,13.00
2018,04,23,12,57,13.10
2018,04,23,12,58,13.10
2018,04,23,12,59,13.10
2018,04,23,13,00,13.10
2018,04,23,13,01,13.10
2018,04,23,13,02,13.10
2018,04,23,13,03,13.00
2018,04,23,13,04,13.10
2018,04,23,13,05,13.20
2018,04,23,13,06,13.30
2018,04,23,13,07,13.20
2018,04,23,13,08,13.30
2018,04,23,13,09,13.50
2018,04,23,13,10,13.50
2018,04,23,13,11,13.50
2018,04,23,13,12,13.50
2018,04,23,13,13,13.40
2018,04,23,13,14,13.40
2018,04,23,13,15,13.30
2018,04,23,13,16,13.20
2018,04,23,13,17,13.20
2018,04,23,13,18,13.20
2018,04,23,13,19,13.20
2018,04,23,13,20,13.30
2018,04,23,13,21,13.50
2018,04,23,13,22,13.70
2018,04,23,13,23,13.80
2018,04,23,13,24,13.80
2018,04,23,13,25,13.70
2018,04,23,13,26,13.80
2018,04,23,13,27,13.90
2018,04,23,13,28,13.90
2018,04,23,13,29,13.80
2018,04,23,13,30,13.90
2018,04,23,13,31,13.90
2018,04,23,13,32,13.90
2018,04,23,13,33,13.80
2018,04,23,13,34,13.80
2018,04,23,13,35,13.90
2018,04,23,13,36,13.90
2018,04,23,13,37,13.90
2018,04,23,13,38,13.80
2018,04,23,13,39,13.70
2018,04,23,13,40,13.70
2018,04,23,13,41,13.70
2018,04,23,13,42,13.70
2018,04,23,13,43,13.70
2018,04,23,13,44,13.60
2018,04,23,13,45,13.60
2018,04,23,13,46,13.50
2018,04,23,13,47,13.40
2018,04,23,13,48,13.30
2018,04,23,13,49,13.40
2018,04,23,13,50,13.40
2018,04,23,13,51,13.50
2018,04,23,13,52,13.50
2018,04,23,13,53,13.40
2018,04,23,13,54,13.40
2018,04,23,13,55,13.50
2018,04,23,13,56,13.60
2018,04,23,13,57,13.60
2018,04,23,13,58,13.60
2018,04,23,13,59,13.60
2018,04,23,14,00,13.70
2018,04,23,14,01,13.70
2018,04,23,14,02,13.70
2018,04,23,14,03,13.70
2018,04,23,14,04,13.70
2018,04,23,14,05,13.80
2018,04,23,14,06,13.90
2018,04,23,14,07,14.00
2018,04,23,14,08,14.10
2018,04,23,14,09,14.30
2018,04,23,14,10,14.40
2018,04,23,14,11,14.50
2018,04,23,14,12,14.60
2018,04,23,14,13,14.70
2018,04,23,14,14,14.70
2018,04,23,14,15,14.70
2018,04,23,14,16,14.70
2018,04,23,14,17,14.60
2018,04,23,14,18,14.60
2018,04,23,14,19,14.60
2018,04,23,14,20,14.60
2018,04,23,14,21,14.60
2018,04,23,14,22,14.50
2018,04,23,14,23,14.40
2018,04,23,14,24,14.20
2018,04,23,14,25,14.20
2018,04,23,14,26,14.10
2018,04,23,14,27,14.00
2018,04,23,14,28,14.00
2018,04,23,14,29,14.00
2018,04,23,14,30,14.00
2018,04,23,14,31,14.10
2018,04,23,14,32,14.10
2018,04,23,14,33,14.00
2018,04,23,14,34,14.00
2018,04,23,14,35,14.00
2018,04,23,14,36,14.00
2018,04,23,14,37,14.10
2018,04,23,14,38,14.20
2018,04,23,14,39,14.20
2018,04,23,14,40,14.20
2018,04,23,14,41,14.20
2018,04,23,14,42,14.20
2018,04,23,14,43,14.20
2018,04,23,14,44,14.40
2018,04,23,14,45,14.60
2018,04,23,14,46,14.70
2018,04,23,14,47,14.70
2018,04,23,14,48,14.60
2018,04,23,14,49,14.50
2018,04,23,14,50,14.30
2018,04,23,14,51,14.30
2018,04,23,14,52,14.30
2018,04,23,14,53,14.20
2018,04,23,14,54,14.10
2018,04,23,14,55,14.00
2018,04,23,14,56,14.00
2018,04,23,14,57,14.00
2018,04,23,14,58,14.10
2018,04,23,14,59,14.20
2018,04,23,15,00,14.20
2018,04,23,15,01,14.30
2018,04,23,15,02,14.30
2018,04,23,15,03,14.40
2018,04,23,15,04,14.50
2018,04,23,15,05,14.70
2018,04,23,15,06,14.80
2018,04,23,15,07,14.90
2018,04,23,15,08,15.00
2018,04,23,15,09,15.00
2018,04,23,15,10,14.90
2018,04,23,15,11,14.80
2018,04,23,15,12,14.60
2018,04,23,15,13,14.50
2018,04,23,15,14,14.40
2018,04,23,15,15,14.30
2018,04,23,15,16,14.40
2018,04,23,15,17,14.40
2018,04,23,15,18,14.50
2018,04,23,15,19,14.60
2018,04,23,15,20,14.70
2018,04,23,15,21,14.80
2018,04,23,15,22,14.80
2018,04,23,15,23,14.80
2018,04,23,15,24,14.80
2018,04,23,15,25,14.70
2018,04,23,15,26,14.60
2018,04,23,15,27,14.60
2018,04,23,15,28,14.70
2018,04,23,15,29,14.80
2018,04,23,15,30,15.00
2018,04,23,15,31,15.10
2018,04,23,15,32,15.20
2018,04,23,15,33,15.30
2018,04,23,15,34,15.40
2018,04,23,15,35,15.30
2018,04,23,15,36,15.20
2018,04,23,15,37,15.10
2018,04,23,15,38,15.00
2018,04,23,15,39,14.90
2018,04,23,15,40,14.80
2018,04,23,15,41,14.80
2018,04,23,15,42,14.80
2018,04,23,15,43,14.80
2018,04,23,15,44,14.80
2018,04,23,15,45,14.80
2018,04,23,15,46,14.80
2018,04,23,15,47,14.80
2018,04,23,15,48,14.80
2018,04,23,15,49,14.90
2018,04,23,15,50,15.10
2018,04,23,15,51,15.20
2018,04,23,15,52,15.40
2018,04,23,15,53,15.60
2018,04,23,15,54,15.80
2018,04,23,15,55,15.90
2018,04,23,15,56,15.90
2018,04,23,15,57,15.90
2018,04,23,15,58,15.90
2018,04,23,15,59,15.90
2018,04,23,16,00,15.80
2018,04,23,16,01,15.80
2018,04,23,16,02,15.80
2018,04,23,16,03,15.80
2018,04,23,16,04,15.90
2018,04,23,16,05,15.90
2018,04,23,16,06,16.00
2018,04,23,16,07,16.10
2018,04,23,16,08,16.20
2018,04,23,16,09,16.20
2018,04,23,16,10,16.20
2018,04,23,16,11,16.30
2018,04,23,16,12,16.30
2018,04,23,16,13,16.30
2018,04,23,16,14,16.30
2018,04,23,16,15,16.20
2018,04,23,16,16,16.10
2018,04,23,16,17,16.10
2018,04,23,16,18,16.10
2018,04,23,16,19,16.00
2018,04,23,16,20,15.90
2018,04,23,16,21,15.80
2018,04,23,16,22,15.60
2018,04,23,16,23,15.60
2018,04,23,16,24,15.60
2018,04,23,16,25,15.60
2018,04,23,16,26,15.70
2018,04,23,16,27,15.80
2018,04,23,16,28,15.80
2018,04,23,16,29,15.80
2018,04,23,16,30,15.80
2018,04,23,16,31,15.80
2018,04,23,16,32,15.90
2018,04,23,16,33,16.00
2018,04,23,16,34,16.10
2018,04,23,16,35,16.20
2018,04,23,16,36,16.20
2018,04,23,16,37,16.30
2018,04,23,16,38,16.30
2018,04,23,16,39,16.30
2018,04,23,16,40,16.40
2018,04,23,16,41,16.40
2018,04,23,16,42,16.40
2018,04,23,16,43,16.40
2018,04,23,16,44,16.40
2018,04,23,16,45,16.40
2018,04,23,16,46,16.60
2018,04,23,16,47,16.60
2018,04,23,16,48,16.70
2018,04,23,16,49,16.70
2018,04,23,16,50,16.80
2018,04,23,16,51,16.90
2018,04,23,16,52,16.90
2018,04,23,16,53,16.80
2018,04,23,16,54,16.70
2018,04,23,16,55,16.60
2018,04,23,16,56,16.40
2018,04,23,16,57,16.30
2018,04,23,16,58,16.20
2018,04,23,16,59,16.20
2018,04,23,17,00,16.10
2018,04,23,17,01,16.10
2018,04,23,17,02,16.10
2018,04,23,17,03,16.10
2018,04,23,17,04,16.20
2018,04,23,17,05,16.30
2018,04,23,17,06,16.40
2018,04,23,17,07,16.50
2018,04,23,17,08,16.60
2018,04,23,17,09,16.70
2018,04,23,17,10,16.70
2018,04,23,17,11,16.70
2018,04,23,17,12,16.70
2018,04,23,17,13,16.60
2018,04,23,17,14,16.40
2018,04,23,17,15,16.30
2018,04,23,17,16,16.30
2018,04,23,17,17,16.30
2018,04,23,17,18,16.30
2018,04,23,17,19,16.30
2018,04,23,17,20,16.20
2018,04,23,17,21,16.30
2018,04,23,17,22,16.30
2018,04,23,17,23,16.30
2018,04,23,17,24,16.40
2018,04,23,17,25,16.40
2018,04,23,17,26,16.40
2018,04,23,17,27,16.50
2018,04,23,17,28,16.60
2018,04,23,17,29,16.60
2018,04,23,17,30,16.70
2018,04,23,17,31,16.70
2018,04,23,17,32,16.70
2018,04,23,17,33,16.70
2018,04,23,17,34,16.70
2018,04,23,17,35,16.60
2018,04,23,17,36,16.40
2018,04,23,17,37,16.40
2018,04,23,17,38,16.30
2018,04,23,17,39,16.30
2018,04,23,17,40,16.20
2018,04,23,17,41,16.20
2018,04,23,17,42,16.10
2018,04,23,17,43,16.10
2018,04,23,17,44,16.00